Terminal Aerodrome Forecast
Issued by NWS Charleston, WV

Current Version | Previous Version | Graphics & Text | Print | Product List | Glossary On
Versions: 1 2 3 4 5 6 7 8 9 10 11 12 13 14 15 16 17 18 19 20 21 22 23 24 25 26 27 28
000
FTUS41 KRLX 250500
TAFHTS
TAF
KHTS 250520Z 2506/2606 00000KT P6SM OVC090
     FM251400 10004KT 6SM SHRA OVC050
     FM251700 09006KT 5SM SHRA OVC025
     FM251900 08006KT P6SM BKN015
     FM260200 06005KT 6SM SHRA BR OVC015
     FM260500 03006KT 5SM SHRA BR OVC010=

USA.gov is the U.S. government's official web portal to all federal, state and local government web resources and services.